TimePST,TemperatureF,Dew PointF,Humidity,Sea Level PressureIn,VisibilityMPH,Wind Direction,Wind SpeedMPH,Gust SpeedMPH,PrecipitationIn,Events,Conditions,WindDirDegrees,DateUTC
12:15 AM,35.6,33.8,93,29.98,2.5,Calm,Calm,-,N/A,,Clear,0,2012-11-10 08:15:00
12:24 AM,35.6,33.8,93,29.98,8.0,Calm,Calm,-,N/A,,Clear,0,2012-11-10 08:24:00
12:53 AM,35.1,33.1,92,29.98,9.0,Calm,Calm,-,N/A,,Clear,0,2012-11-10 08:53:00
1:53 AM,33.1,30.9,92,29.98,8.0,Calm,Calm,-,N/A,,Clear,0,2012-11-10 09:53:00
2:32 AM,33.8,30.2,87,29.99,6.0,Calm,Calm,-,N/A,,Scattered Clouds,0,2012-11-10 10:32:00
2:43 AM,33.8,30.2,87,29.99,2.0,Calm,Calm,-,N/A,,Scattered Clouds,0,2012-11-10 10:43:00
2:53 AM,34.0,32.0,92,29.98,5.0,Calm,Calm,-,N/A,,Partly Cloudy,0,2012-11-10 10:53:00
3:28 AM,32.0,30.2,93,30.00,2.0,Calm,Calm,-,N/A,,Partly Cloudy,0,2012-11-10 11:28:00
3:31 AM,32.0,30.2,93,30.00,1.0,Calm,Calm,-,N/A,,Mist,0,2012-11-10 11:31:00
3:38 AM,32.0,30.2,93,30.00,0.5,Calm,Calm,-,N/A,Fog,Fog,0,2012-11-10 11:38:00
3:53 AM,33.1,30.9,92,29.99,1.0,Calm,Calm,-,N/A,,Mist,0,2012-11-10 11:53:00
4:01 AM,32.0,30.2,93,30.01,2.0,Calm,Calm,-,N/A,,Partly Cloudy,0,2012-11-10 12:01:00
4:12 AM,32.0,30.2,93,30.01,6.0,Calm,Calm,-,N/A,,Clear,0,2012-11-10 12:12:00
4:53 AM,33.1,30.9,92,30.01,8.0,Calm,Calm,-,N/A,,Scattered Clouds,0,2012-11-10 12:53:00
5:22 AM,33.8,30.2,87,30.03,5.0,Calm,Calm,-,N/A,,Scattered Clouds,0,2012-11-10 13:22:00
5:53 AM,30.9,28.9,92,30.02,9.0,Calm,Calm,-,N/A,,Clear,0,2012-11-10 13:53:00
6:10 AM,30.2,30.2,100,30.04,1.5,Calm,Calm,-,N/A,,Clear,0,2012-11-10 14:10:00
6:20 AM,30.2,28.4,93,30.04,3.0,Calm,Calm,-,N/A,,Partly Cloudy,0,2012-11-10 14:20:00
6:29 AM,32.0,28.4,87,30.04,1.8,Calm,Calm,-,N/A,,Scattered Clouds,0,2012-11-10 14:29:00
6:33 AM,30.2,30.2,100,30.05,0.8,Calm,Calm,-,N/A,,Mist,0,2012-11-10 14:33:00
6:50 AM,30.2,30.2,100,30.05,10.0,Calm,Calm,-,N/A,Fog,Shallow Fog,0,2012-11-10 14:50:00
6:53 AM,30.9,30.0,96,30.04,10.0,Calm,Calm,-,N/A,Fog,Shallow Fog,0,2012-11-10 14:53:00
7:00 AM,30.2,28.4,93,30.06,0.2,Calm,Calm,-,N/A,Fog,Shallow Fog,0,2012-11-10 15:00:00
7:07 AM,30.2,28.4,93,30.06,10.0,Calm,Calm,-,N/A,Fog,Shallow Fog,0,2012-11-10 15:07:00
7:53 AM,33.1,33.1,100,30.06,10.0,Calm,Calm,-,N/A,Fog,Patches of Fog,0,2012-11-10 15:53:00
8:53 AM,39.0,37.9,96,30.08,10.0,Calm,Calm,-,N/A,,Clear,0,2012-11-10 16:53:00
9:53 AM,46.9,39.0,74,30.09,10.0,West,3.5,-,N/A,,Clear,260,2012-11-10 17:53:00
10:53 AM,53.1,37.9,57,30.11,10.0,ENE,3.5,-,N/A,,Partly Cloudy,60,2012-11-10 18:53:00
11:53 AM,59.0,32.0,36,30.09,10.0,North,8.1,-,N/A,,Partly Cloudy,350,2012-11-10 19:53:00
12:53 PM,60.1,30.9,33,30.08,10.0,NNW,9.2,-,N/A,,Clear,340,2012-11-10 20:53:00
1:53 PM,60.1,32.0,35,30.08,10.0,NNW,10.4,-,N/A,,Scattered Clouds,340,2012-11-10 21:53:00
2:53 PM,59.0,30.9,35,30.08,10.0,NNW,11.5,-,N/A,,Clear,330,2012-11-10 22:53:00
3:53 PM,57.0,30.9,37,30.09,10.0,NW,10.4,-,N/A,,Partly Cloudy,310,2012-11-10 23:53:00
4:53 PM,52.0,32.0,47,30.10,10.0,NW,9.2,-,N/A,,Scattered Clouds,310,2012-11-11 00:53:00
5:53 PM,48.9,37.9,66,30.13,10.0,Calm,Calm,-,N/A,,Clear,0,2012-11-11 01:53:00
6:53 PM,46.0,37.0,71,30.16,10.0,Calm,Calm,-,N/A,,Clear,0,2012-11-11 02:53:00
8:53 PM,39.9,36.0,86,30.19,10.0,Calm,Calm,-,N/A,,Clear,0,2012-11-11 04:53:00
9:53 PM,39.0,35.1,86,30.21,10.0,Calm,Calm,-,N/A,,Clear,0,2012-11-11 05:53:00
10:53 PM,37.0,33.1,86,30.22,10.0,Calm,Calm,-,N/A,,Clear,0,2012-11-11 06:53:00
11:53 PM,36.0,32.0,86,30.23,10.0,Calm,Calm,-,N/A,,Clear,0,2012-11-11 07:53:00